Weather History for Columbus, OH

Change the Weather History Date:

Tuesday, March 25, 2014

  Actual Average Record
Temperature  
Mean Temperature 31 °F 45 °F  
Max Temperature 39 °F 55 °F 84 °F (1929)
Min Temperature 23 °F 36 °F 5 °F (1974)
Degree Days  
Heating Degree Days 34 20  
Month to date heating degree days 697 605  
Since 1 July heating degree days 5081 4600  
Cooling Degree Days 0 0  
Month to date cooling degree days 0 0  
Year to date cooling degree days 0 0  
Moisture  
Dew Point 16 °F    
Average Humidity 57    
Maximum Humidity 78    
Minimum Humidity 35    
Precipitation  
Precipitation 0.01 in 0.11 in 2.89 in (1913)
Month to date precipitation 1.33 2.35  
Year to date precipitation 6.12 7.33  
Snow  
Snow 0.40 in 0.10 in 2.00 in (1899)
Month to date snowfall 3.3 3.8  
Since 1 July snowfall 54.3 25.2  
Snow Depth 0.00 in    
Sea Level Pressure  
Sea Level Pressure 30.02 in    
Wind  
Wind Speed 9 mph (NW)    
Max Wind Speed 32 mph    
Max Gust Speed 41 mph    
Visibility 9 miles    
Events Snow    
T = Trace of Precipitation, MM = Missing Value Source: NWS Daily Summary

Daily Weather History Graph

Daily Weather History Graph

Search for Another Location

Airport:

Trip Planner

Search our weather history database for the weather conditions in past years. The results will help you decide how hot, cold, wet, or windy it might be!

Date:

Astronomy

Mar. 25, 2014 Rise Set
Actual Time 7:26 AM EDT 7:48 PM EDT
Civil Twilight 6:59 AM EDT 8:15 PM EDT
Nautical Twilight 6:27 AM EDT 8:47 PM EDT
Astronomical Twilight 5:55 AM EDT 9:20 PM EDT
Moon 3:47 AM EDT (3/25) 2:18 PM EDT (3/25)
Length of Visible Light 13h 16m
Length of Day
12h 21m
Waning Crescent, 32% of the Moon is Illuminated
Mar 25
Waning Crescent
Mar 30
New
Apr 7
First Quarter
Apr 15
Full
Apr 22
Last Quarter

Hourly Weather History & Observations

Time (EDT) Temp. Windchill Dew Point Humidity Pressure Visibility Wind Dir Wind Speed Gust Speed Precip Events Conditions
12:51 AM 30.0 °F - 12.0 °F 47% 30.12 in 10.0 mi Calm Calm - N/A   Overcast
1:51 AM 30.0 °F - 10.0 °F 43% 30.09 in 10.0 mi Calm Calm - N/A   Overcast
2:51 AM 28.9 °F - 10.9 °F 47% 30.08 in 10.0 mi Calm Calm - N/A   Overcast
3:51 AM 28.9 °F - 12.0 °F 49% 30.06 in 10.0 mi Calm Calm - N/A   Overcast
4:51 AM 28.0 °F - 15.1 °F 58% 30.04 in 10.0 mi Calm Calm - N/A   Overcast
5:51 AM 27.0 °F - 16.0 °F 63% 30.03 in 10.0 mi Calm Calm - N/A   Overcast
6:51 AM 27.0 °F - 15.1 °F 61% 30.01 in 10.0 mi Calm Calm - N/A   Overcast
7:51 AM 27.0 °F - 15.1 °F 61% 30.01 in 10.0 mi Calm Calm - N/A   Overcast
8:51 AM 28.9 °F - 15.1 °F 56% 30.01 in 10.0 mi Calm Calm - N/A   Overcast
9:51 AM 32.0 °F 28.7 °F 12.0 °F 44% 30.00 in 10.0 mi ESE 3.5 mph - N/A   Overcast
10:51 AM 34.0 °F 31.0 °F 12.0 °F 40% 30.00 in 10.0 mi Variable 3.5 mph - N/A   Scattered Clouds
11:51 AM 35.1 °F 29.3 °F 12.0 °F 39% 29.99 in 10.0 mi SW 6.9 mph - N/A   Mostly Cloudy
12:51 PM 37.9 °F 32.1 °F 12.9 °F 36% 29.98 in 10.0 mi West 8.1 mph - N/A   Overcast
1:51 PM 37.0 °F 30.4 °F 14.0 °F 39% 29.96 in 10.0 mi WNW 9.2 mph - N/A   Overcast
2:51 PM 37.9 °F 30.5 °F 15.1 °F 39% 29.95 in 10.0 mi WSW 11.5 mph 17.3 mph N/A   Overcast
3:51 PM 36.0 °F 26.0 °F 21.9 °F 57% 29.95 in 10.0 mi NW 17.3 mph 25.3 mph N/A   Overcast
4:02 PM 32.0 °F 17.9 °F 21.2 °F 64% 29.94 in 1.0 mi NW 28.8 mph 41.4 mph 0.00 in Snow Light Snow
4:21 PM 30.2 °F 18.5 °F 24.8 °F 80% 29.96 in 0.2 mi NNW 17.3 mph 27.6 mph 0.00 in Snow Heavy Snow
4:33 PM 28.4 °F 15.8 °F 24.8 °F 86% 29.96 in 1.0 mi NW 18.4 mph 29.9 mph 0.01 in Snow Light Snow
4:40 PM 30.2 °F 19.3 °F 24.8 °F 80% 29.97 in 2.0 mi NW 15.0 mph - 0.01 in Snow Light Snow
4:49 PM 30.2 °F 18.1 °F 24.8 °F 80% 29.97 in 8.0 mi NW 18.4 mph 21.9 mph 0.01 in   Mostly Cloudy
4:51 PM 30.9 °F 19.1 °F 24.1 °F 76% 30.00 in 10.0 mi NW 18.4 mph 21.9 mph 0.01 in   Mostly Cloudy
5:10 PM 30.2 °F 20.8 °F 23.0 °F 75% 29.97 in 10.0 mi NNW 11.5 mph - N/A   Scattered Clouds
5:51 PM 32.0 °F 21.2 °F 19.9 °F 61% 30.01 in 10.0 mi NW 16.1 mph - 0.00 in   Mostly Cloudy
6:51 PM 30.9 °F 18.7 °F 18.0 °F 59% 30.04 in 10.0 mi WNW 19.6 mph 28.8 mph 0.00 in   Mostly Cloudy
7:51 PM 28.9 °F 18.2 °F 15.1 °F 56% 30.06 in 10.0 mi WNW 13.8 mph - N/A   Scattered Clouds
8:51 PM 28.9 °F 18.2 °F 14.0 °F 54% 30.09 in 10.0 mi NW 13.8 mph - N/A   Partly Cloudy
9:51 PM 28.0 °F 14.6 °F 12.0 °F 51% 30.12 in 10.0 mi NW 20.7 mph 26.5 mph N/A   Overcast
10:51 PM 26.1 °F 12.7 °F 10.9 °F 53% 30.14 in 10.0 mi NW 18.4 mph 25.3 mph N/A   Scattered Clouds
11:51 PM 24.1 °F 10.6 °F 9.0 °F 53% 30.17 in 10.0 mi NW 17.3 mph 26.5 mph N/A   Partly Cloudy